Time,TemperatureF,DewpointF,PressureIn,WindDirection,WindDirectionDegrees,WindSpeedMPH,WindSpeedGustMPH,Humidity,HourlyPrecipIn,Conditions,Clouds,dailyrainin,SolarRadiationWatts/m^2,SoftwareType,DateUTC
2013-09-22 00:02:00,52.0,51.0,-100.00,WSW,248,0.0,3.0,98,0.00,,,0.76,0.000000,,2013-09-22 07:02:00,
2013-09-22 00:11:00,52.0,51.0,-100.00,WSW,248,0.0,3.0,98,0.00,,,0.76,0.000000,,2013-09-22 07:11:00,
2013-09-22 00:42:00,51.0,50.0,-100.00,ESE,108,1.0,3.0,98,0.00,,,0.76,0.000000,,2013-09-22 07:42:00,
2013-09-22 00:52:00,51.0,50.0,-100.00,ESE,108,1.0,3.0,98,0.00,,,0.76,0.000000,,2013-09-22 07:52:00,
2013-09-22 01:03:00,51.0,50.0,-100.00,ESE,108,1.0,3.0,98,0.00,,,0.76,0.000000,,2013-09-22 08:03:00,
2013-09-22 01:11:00,51.0,50.0,-100.00,ESE,108,1.0,3.0,98,0.00,,,0.76,0.000000,,2013-09-22 08:11:00,
2013-09-22 01:42:00,51.0,51.0,-100.00,WSW,254,1.0,5.0,99,0.01,,,0.77,0.000000,,2013-09-22 08:42:00,
2013-09-22 01:52:00,51.0,51.0,-100.00,WSW,254,1.0,5.0,99,0.01,,,0.77,0.000000,,2013-09-22 08:52:00,
2013-09-22 02:01:00,51.0,51.0,-100.00,WSW,254,1.0,5.0,99,0.01,,,0.77,0.000000,,2013-09-22 09:01:00,
2013-09-22 02:11:00,51.0,51.0,-100.00,WSW,254,1.0,5.0,99,0.01,,,0.77,0.000000,,2013-09-22 09:11:00,
2013-09-22 02:12:00,51.0,51.0,-100.00,SSE,164,4.0,7.0,99,0.00,,,0.77,0.000000,,2013-09-22 09:12:00,
2013-09-22 02:43:00,51.0,51.0,-100.00,SSE,164,4.0,7.0,99,0.00,,,0.77,0.000000,,2013-09-22 09:43:00,
2013-09-22 02:53:00,51.0,51.0,-100.00,SSE,164,4.0,7.0,99,0.00,,,0.77,0.000000,,2013-09-22 09:53:00,
2013-09-22 03:03:00,51.0,51.0,-100.00,SSE,164,4.0,7.0,99,0.00,,,0.77,0.000000,,2013-09-22 10:03:00,
2013-09-22 03:12:00,51.0,51.0,-100.00,SSE,159,4.0,7.0,99,0.00,,,0.77,0.000000,,2013-09-22 10:12:00,
2013-09-22 03:44:00,51.0,51.0,-100.00,SSE,159,4.0,7.0,99,0.00,,,0.77,0.000000,,2013-09-22 10:44:00,
2013-09-22 03:53:00,51.0,51.0,-100.00,SSE,159,4.0,7.0,99,0.00,,,0.77,0.000000,,2013-09-22 10:53:00,
2013-09-22 04:12:00,51.0,51.0,-100.00,SSE,162,4.0,8.0,99,0.00,,,0.77,0.000000,,2013-09-22 11:12:00,
2013-09-22 04:42:00,51.0,51.0,-100.00,SSE,162,4.0,8.0,99,0.00,,,0.77,0.000000,,2013-09-22 11:42:00,
2013-09-22 04:52:00,51.0,51.0,-100.00,SSE,162,4.0,8.0,99,0.00,,,0.77,0.000000,,2013-09-22 11:52:00,
2013-09-22 05:02:00,51.0,51.0,-100.00,SSE,162,4.0,8.0,99,0.00,,,0.77,0.000000,,2013-09-22 12:02:00,
2013-09-22 05:12:00,51.0,51.0,-100.00,SSE,163,6.0,11.0,99,0.00,,,0.77,0.000000,,2013-09-22 12:12:00,
2013-09-22 05:42:00,51.0,51.0,-100.00,SSE,163,6.0,11.0,99,0.00,,,0.77,0.000000,,2013-09-22 12:42:00,
2013-09-22 05:52:00,51.0,51.0,-100.00,SSE,163,6.0,11.0,99,0.00,,,0.77,0.000000,,2013-09-22 12:52:00,
2013-09-22 06:02:00,51.0,51.0,-100.00,SSE,163,6.0,11.0,99,0.00,,,0.77,0.000000,,2013-09-22 13:02:00,
2013-09-22 06:42:00,51.0,51.0,-100.00,SSE,165,6.0,10.0,99,0.00,,,0.77,0.000000,,2013-09-22 13:42:00,
2013-09-22 06:52:00,51.0,51.0,-100.00,SSE,165,6.0,10.0,99,0.00,,,0.77,0.000000,,2013-09-22 13:52:00,
2013-09-22 07:02:00,51.0,51.0,-100.00,SSE,165,6.0,10.0,99,0.00,,,0.77,0.000000,,2013-09-22 14:02:00,
2013-09-22 07:11:00,51.0,51.0,-100.00,SSE,165,6.0,10.0,99,0.00,,,0.77,0.000000,,2013-09-22 14:11:00,
2013-09-22 07:12:00,51.0,51.0,-100.00,SSE,165,5.0,10.0,99,0.01,,,0.78,0.000000,,2013-09-22 14:12:00,
2013-09-22 07:42:00,51.0,51.0,-100.00,SSE,165,5.0,10.0,99,0.01,,,0.78,0.000000,,2013-09-22 14:42:00,
2013-09-22 07:52:00,51.0,51.0,-100.00,SSE,165,5.0,10.0,99,0.01,,,0.78,0.000000,,2013-09-22 14:52:00,
2013-09-22 08:02:00,51.0,51.0,-100.00,SSE,165,5.0,10.0,99,0.01,,,0.78,0.000000,,2013-09-22 15:02:00,
2013-09-22 08:12:00,51.0,51.0,-100.00,South,173,6.0,13.0,99,0.01,,,0.79,5.000000,,2013-09-22 15:12:00,
2013-09-22 08:44:00,51.0,51.0,-100.00,South,173,6.0,13.0,99,0.01,,,0.79,5.000000,,2013-09-22 15:44:00,
2013-09-22 08:55:00,51.0,51.0,-100.00,South,173,6.0,13.0,99,0.01,,,0.79,5.000000,,2013-09-22 15:55:00,
2013-09-22 09:04:00,51.0,51.0,-100.00,South,173,6.0,13.0,99,0.01,,,0.79,5.000000,,2013-09-22 16:04:00,
2013-09-22 09:12:00,51.0,51.0,-100.00,SSE,168,8.0,14.0,99,0.00,,,0.79,20.000000,,2013-09-22 16:12:00,
2013-09-22 09:43:00,51.0,51.0,-100.00,SSE,168,8.0,14.0,99,0.00,,,0.79,20.000000,,2013-09-22 16:43:00,
2013-09-22 09:54:00,51.0,51.0,-100.00,SSE,168,8.0,14.0,99,0.00,,,0.79,20.000000,,2013-09-22 16:54:00,
2013-09-22 10:03:00,51.0,51.0,-100.00,SSE,168,8.0,14.0,99,0.00,,,0.79,20.000000,,2013-09-22 17:03:00,
2013-09-22 10:12:00,52.0,51.0,-100.00,South,174,8.0,18.0,97,0.00,,,0.79,60.000000,,2013-09-22 17:12:00,
2013-09-22 10:43:00,52.0,51.0,-100.00,South,174,8.0,18.0,97,0.00,,,0.79,60.000000,,2013-09-22 17:43:00,
2013-09-22 10:53:00,52.0,51.0,-100.00,South,174,8.0,18.0,97,0.00,,,0.79,60.000000,,2013-09-22 17:53:00,
2013-09-22 11:02:00,52.0,51.0,-100.00,South,174,8.0,18.0,97,0.00,,,0.79,60.000000,,2013-09-22 18:02:00,
2013-09-22 11:42:00,53.0,51.0,-100.00,South,176,10.0,20.0,94,0.00,,,0.79,83.000000,,2013-09-22 18:42:00,
2013-09-22 11:52:00,53.0,51.0,-100.00,South,176,10.0,20.0,94,0.00,,,0.79,83.000000,,2013-09-22 18:52:00,
2013-09-22 12:02:00,53.0,51.0,-100.00,South,176,10.0,20.0,94,0.00,,,0.79,83.000000,,2013-09-22 19:02:00,
2013-09-22 12:11:00,53.0,51.0,-100.00,South,176,10.0,20.0,94,0.00,,,0.79,83.000000,,2013-09-22 19:11:00,
2013-09-22 12:12:00,52.0,51.0,-100.00,South,169,8.0,21.0,97,0.07,,,0.86,26.000000,,2013-09-22 19:12:00,
2013-09-22 12:42:00,52.0,51.0,-100.00,South,169,8.0,21.0,97,0.07,,,0.86,26.000000,,2013-09-22 19:42:00,
2013-09-22 12:52:00,52.0,51.0,-100.00,South,169,8.0,21.0,97,0.07,,,0.86,26.000000,,2013-09-22 19:52:00,
2013-09-22 13:03:00,52.0,51.0,-100.00,South,169,8.0,21.0,97,0.07,,,0.86,26.000000,,2013-09-22 20:03:00,
2013-09-22 13:42:00,53.0,52.0,-100.00,South,173,7.0,17.0,98,0.17,,,1.03,47.000000,,2013-09-22 20:42:00,
2013-09-22 13:52:00,53.0,52.0,-100.00,South,173,7.0,17.0,98,0.17,,,1.03,47.000000,,2013-09-22 20:52:00,
2013-09-22 14:02:00,53.0,52.0,-100.00,South,173,7.0,17.0,98,0.17,,,1.03,47.000000,,2013-09-22 21:02:00,
2013-09-22 14:11:00,53.0,52.0,-100.00,South,173,7.0,17.0,98,0.17,,,1.03,47.000000,,2013-09-22 21:11:00,
2013-09-22 14:12:00,53.0,52.0,-100.00,South,169,5.0,10.0,98,0.29,,,1.32,46.000000,,2013-09-22 21:12:00,
2013-09-22 14:45:00,53.0,52.0,-100.00,South,169,5.0,10.0,98,0.29,,,1.32,46.000000,,2013-09-22 21:45:00,
2013-09-22 14:54:00,53.0,52.0,-100.00,South,169,5.0,10.0,98,0.29,,,1.32,46.000000,,2013-09-22 21:54:00,
2013-09-22 15:04:00,53.0,52.0,-100.00,South,169,5.0,10.0,98,0.29,,,1.32,46.000000,,2013-09-22 22:04:00,
2013-09-22 15:12:00,54.0,53.0,-100.00,WNW,290,2.0,9.0,98,0.08,,,1.15,95.000000,,2013-09-22 22:12:00,
2013-09-22 15:43:00,54.0,53.0,-100.00,WNW,290,2.0,9.0,98,0.08,,,1.15,95.000000,,2013-09-22 22:43:00,
2013-09-22 15:53:00,54.0,53.0,-100.00,WNW,290,2.0,9.0,98,0.08,,,1.15,95.000000,,2013-09-22 22:53:00,
2013-09-22 16:03:00,54.0,53.0,-100.00,WNW,290,2.0,9.0,98,0.08,,,1.15,95.000000,,2013-09-22 23:03:00,
2013-09-22 16:12:00,56.0,55.0,-100.00,SW,231,1.0,5.0,98,0.03,,,0.89,157.000000,,2013-09-22 23:12:00,
2013-09-22 16:43:00,56.0,55.0,-100.00,SW,231,1.0,5.0,98,0.03,,,0.89,157.000000,,2013-09-22 23:43:00,
2013-09-22 16:52:00,56.0,55.0,-100.00,SW,231,1.0,5.0,98,0.03,,,0.89,157.000000,,2013-09-22 23:52:00,
2013-09-22 17:01:00,56.0,55.0,-100.00,SW,231,1.0,5.0,98,0.03,,,0.89,157.000000,,2013-09-23 00:01:00,
2013-09-22 17:12:00,57.0,56.0,-100.00,SW,217,2.0,6.0,96,0.00,,,0.72,134.000000,,2013-09-23 00:12:00,
2013-09-22 17:42:00,57.0,56.0,-100.00,SW,217,2.0,6.0,96,0.00,,,0.72,134.000000,,2013-09-23 00:42:00,
2013-09-22 17:53:00,57.0,56.0,-100.00,SW,217,2.0,6.0,96,0.00,,,0.72,134.000000,,2013-09-23 00:53:00,
2013-09-22 18:01:00,57.0,56.0,-100.00,SW,217,2.0,6.0,96,0.00,,,0.72,134.000000,,2013-09-23 01:01:00,
2013-09-22 18:43:00,55.0,54.0,-100.00,NW,322,1.0,6.0,97,0.01,,,0.68,75.000000,,2013-09-23 01:43:00,
2013-09-22 18:52:00,55.0,54.0,-100.00,NW,322,1.0,6.0,97,0.01,,,0.68,75.000000,,2013-09-23 01:52:00,
2013-09-22 19:02:00,55.0,54.0,-100.00,NW,322,1.0,6.0,97,0.01,,,0.68,75.000000,,2013-09-23 02:02:00,
2013-09-22 19:11:00,55.0,54.0,-100.00,NW,322,1.0,6.0,97,0.01,,,0.68,75.000000,,2013-09-23 02:11:00,
2013-09-22 19:12:00,54.0,53.0,-100.00,SSE,168,1.0,5.0,96,0.00,,,0.68,14.000000,,2013-09-23 02:12:00,
2013-09-22 19:42:00,54.0,53.0,-100.00,SSE,168,1.0,5.0,96,0.00,,,0.68,14.000000,,2013-09-23 02:42:00,
2013-09-22 19:52:00,54.0,53.0,-100.00,SSE,168,1.0,5.0,96,0.00,,,0.68,14.000000,,2013-09-23 02:52:00,
2013-09-22 20:02:00,54.0,53.0,-100.00,SSE,168,1.0,5.0,96,0.00,,,0.68,14.000000,,2013-09-23 03:02:00,
2013-09-22 20:12:00,54.0,53.0,-100.00,SW,228,1.0,7.0,97,0.00,,,0.68,0.000000,,2013-09-23 03:12:00,
2013-09-22 20:44:00,54.0,53.0,-100.00,SW,228,1.0,7.0,97,0.00,,,0.68,0.000000,,2013-09-23 03:44:00,
2013-09-22 20:54:00,54.0,53.0,-100.00,SW,228,1.0,7.0,97,0.00,,,0.68,0.000000,,2013-09-23 03:54:00,
2013-09-22 21:05:00,54.0,53.0,-100.00,SW,228,1.0,7.0,97,0.00,,,0.68,0.000000,,2013-09-23 04:05:00,
2013-09-22 21:12:00,53.0,52.0,-100.00,WNW,303,2.0,5.0,98,0.30,,,0.98,0.000000,,2013-09-23 04:12:00,
2013-09-22 21:43:00,53.0,52.0,-100.00,WNW,303,2.0,5.0,98,0.30,,,0.98,0.000000,,2013-09-23 04:43:00,
2013-09-22 21:54:00,53.0,52.0,-100.00,WNW,303,2.0,5.0,98,0.30,,,0.98,0.000000,,2013-09-23 04:54:00,
2013-09-22 22:03:00,53.0,52.0,-100.00,WNW,303,2.0,5.0,98,0.30,,,0.98,0.000000,,2013-09-23 05:03:00,
2013-09-22 22:12:00,52.0,51.0,-100.00,West,272,1.0,3.0,98,0.05,,,1.03,0.000000,,2013-09-23 05:12:00,
2013-09-22 22:43:00,52.0,51.0,-100.00,West,272,1.0,3.0,98,0.05,,,1.03,0.000000,,2013-09-23 05:43:00,
2013-09-22 22:53:00,52.0,51.0,-100.00,West,272,1.0,3.0,98,0.05,,,1.03,0.000000,,2013-09-23 05:53:00,
2013-09-22 23:02:00,52.0,51.0,-100.00,West,272,1.0,3.0,98,0.05,,,1.03,0.000000,,2013-09-23 06:02:00,
2013-09-22 23:42:00,51.0,50.0,-100.00,SSW,196,3.0,5.0,98,0.00,,,1.03,0.000000,,2013-09-23 06:42:00,
2013-09-22 23:52:00,51.0,50.0,-100.00,SSW,196,3.0,5.0,98,0.00,,,1.03,0.000000,,2013-09-23 06:52:00,